Regional Weather Roundup
Issued by NWS

Home | Current Version | Previous Version | Graphics & Text | Print | Product List | Glossary On
Versions: 1 2 3 4 5 6 7 8 9 10 11 12 13 14 15 16 17 18 19 20 21 22 23 24 25 26 27 28 29 30 31 32 33 34 35 36 37 38 39 40 41 42 43 44 45 46 47 48 49 50
000
ASUS43 KFSD 230302
RWRSD

WEATHER ROUNDUP FOR SOUTH DAKOTA
NATIONAL WEATHER SERVICE SIOUX FALLS SD
1000 PM CDT TUE AUG 22 2017

NOTE: "FAIR" INDICATES FEW OR NO CLOUDS BELOW 12,000 FEET WITH NO
SIGNIFICANT WEATHER AND/OR OBSTRUCTIONS TO VISIBILITY.


SDZ001>005-009-010-012>017-230400-
NORTHWEST AND NORTH CENTRAL SOUTH DAKOTA

CITY           SKY/WX    TMP DP  RH WIND       PRES   REMARKS
BUFFALO          N/A     70  44  39 E13       30.05R
FAITH            N/A     67  50  54 E13       30.11S
MOBRIDGE       CLEAR     57  51  80 E3        30.10R
$$

SDZ012>016-024>037-041>051-057-063-072>074-230400-
SOUTHWEST AND SOUTH CENTRAL SOUTH DAKOTA

CITY           SKY/WX    TMP DP  RH WIND       PRES   REMARKS
RAPID CTY ARPT CLEAR     70  46  42 E10       30.10R
PIERRE         CLEAR     66  51  58 E6        30.10R
CUSTER         PTCLDY    63  47  55 E6        30.24R
ELLSWORTH AFB  CLEAR     72  45  37 SE9       30.10R
PHILIP         CLEAR     68  50  52 E9        30.09R
PINE RIDGE     CLEAR     74  47  38 S10       30.12S
SPEARFISH      FAIR      64  45  48 SE5       30.15R
WINNER         FAIR      65  55  70 SE9       30.13S
$$

SDZ004>011-016>023-039-040-230400-
NORTHEAST SOUTH DAKOTA

CITY           SKY/WX    TMP DP  RH WIND       PRES   REMARKS
ABERDEEN       CLEAR     59  51  75 CALM      30.12R
WATERTOWN      CLEAR     59  50  72 CALM      30.13R
BROOKINGS      CLEAR     61  51  70 CALM      30.14R
SISSETON         N/A     56  50  80 W6        30.10R
$$

SDZ017-020-022-023-036>040-048>070-230400-
SOUTHEAST SOUTH DAKOTA

CITY           SKY/WX    TMP DP  RH WIND       PRES   REMARKS
SIOUX FALLS    CLEAR     60  55  83 CALM      30.14R
HURON          CLEAR     61  51  70 CALM      30.12S
CHAMBERLAIN    CLEAR     63  56  78 E3        30.13S
MITCHELL       CLEAR     63  52  67 E3        30.14R
YANKTON        CLEAR     65  52  62 E3        30.15R
$$

ABBREVIATIONS USED IN REMARKS
   TC - TEMPERATURE IN CELSIUS
  WCI - WIND CHILL INDEX
   HX - HEAT INDEX
  VSB - VISIBILITY





USA.gov is the U.S. government's official web portal to all federal, state and local government web resources and services.